Weather History for KABQ - February, 2014

Change the Weather History Date:

Wednesday, February 5, 2014

  Actual Average Record
Temperature  
Mean Temperature 40 °F 39 °F  
Max Temperature 49 °F 50 °F 72 °F (1918)
Min Temperature 31 °F 28 °F 7 °F (1894)
Degree Days  
Heating Degree Days 25 26  
Month to date heating degree days 75 131  
Since 1 July heating degree days 2671 2773  
Cooling Degree Days 0 0  
Month to date cooling degree days 0 0  
Year to date cooling degree days 0 0  
Moisture  
Dew Point 21 °F    
Average Humidity 48    
Maximum Humidity 69    
Minimum Humidity 26    
Precipitation  
Precipitation 0.11 in 0.02 in 0.20 in (1928)
Month to date precipitation 0.11 0.08  
Year to date precipitation 0.11 0.46  
Snow  
Snow 0.80 in - - ()
Month to date snowfall 0.8  
Since 1 July snowfall 5.8  
Snow Depth 1.00 in    
Sea Level Pressure  
Sea Level Pressure 30.11 in    
Wind  
Wind Speed 6 mph (ENE)    
Max Wind Speed 21 mph    
Max Gust Speed 25 mph    
Visibility 6 miles    
Events Fog , Snow    
T = Trace of Precipitation, MM = Missing Value Source: NWS Daily Summary

Daily Weather History Graph

Daily Weather History Graph

Search for Another Location

Airport or City:

Trip Planner

Search our weather history database for the weather conditions in past years. The results will help you decide how hot, cold, wet, or windy it might be!

Date:

Astronomy

Feb. 05, 2014 Rise Set
Actual Time 7:02 AM MST 5:39 PM MST
Civil Twilight 6:35 AM MST 6:05 PM MST
Nautical Twilight 6:05 AM MST 6:35 PM MST
Astronomical Twilight 5:35 AM MST 7:05 PM MST
Moon 10:35 AM MST (2/5) No Moon Set
Length of Visible Light 11h 30m
Length of Day
10h 37m
Waxing Crescent, 40% of the Moon is Illuminated
Feb 5
Waxing Crescent
Feb 6
First Quarter
Feb 14
Full
Feb 22
Last Quarter
Mar 1
New

Hourly Weather History & Observations

Time (MST) Temp. Windchill Dew Point Humidity Pressure Visibility Wind Dir Wind Speed Gust Speed Precip Events Conditions
12:52 AM 28.9 °F 22.8 °F 21.9 °F 75% 30.08 in 10.0 mi SSE 5.8 mph - N/A   Mostly Cloudy
1:52 AM 28.9 °F 25.2 °F 21.0 °F 72% 30.08 in 10.0 mi SSE 3.5 mph - N/A   Mostly Cloudy
2:52 AM 30.0 °F 25.2 °F 21.0 °F 69% 30.09 in 10.0 mi NE 4.6 mph - N/A   Scattered Clouds
3:52 AM 30.9 °F 27.5 °F 21.0 °F 67% 30.10 in 10.0 mi SSE 3.5 mph - N/A   Overcast
4:52 AM 30.9 °F 26.2 °F 23.0 °F 72% 30.11 in 10.0 mi NE 4.6 mph - N/A   Clear
5:52 AM 30.9 °F - 23.0 °F 72% 30.11 in 10.0 mi Calm Calm - N/A   Mostly Cloudy
6:52 AM 30.0 °F 22.4 °F 21.0 °F 69% 30.13 in 10.0 mi North 8.1 mph - N/A   Overcast
7:52 AM 30.0 °F 22.4 °F 21.0 °F 69% 30.14 in 10.0 mi North 8.1 mph - N/A   Overcast
8:52 AM 30.9 °F 25.2 °F 21.0 °F 67% 30.17 in 10.0 mi NNE 5.8 mph - N/A   Overcast
9:52 AM 33.1 °F 30.0 °F 21.9 °F 64% 30.17 in 10.0 mi NNE 3.5 mph - N/A   Overcast
10:52 AM 34.0 °F 24.6 °F 24.1 °F 67% 30.15 in 7.0 mi South 13.8 mph - 0.00 in Snow Light Snow
11:34 AM 32.0 °F 25.6 °F 27.0 °F 82% 30.12 in 1.5 mi South 6.9 mph - 0.00 in Snow Light Snow
11:47 AM 30.2 °F 21.9 °F 28.4 °F 93% 30.12 in 0.8 mi SSE 9.2 mph - 0.01 in Snow Light Snow
11:52 AM 30.9 °F 24.3 °F 28.0 °F 89% 30.16 in 0.5 mi SSE 6.9 mph - 0.01 in Fog , Snow Snow
12:19 PM 28.9 °F 18.2 °F 25.0 °F 85% 30.10 in 1.2 mi East 13.8 mph - 0.02 in Snow Light Snow
12:34 PM 28.9 °F 18.2 °F 25.0 °F 85% 30.09 in 0.8 mi East 13.8 mph - 0.02 in Snow Light Snow
12:52 PM 30.0 °F 18.7 °F 26.1 °F 85% 30.13 in 1.0 mi East 16.1 mph - 0.03 in Snow Light Snow
1:13 PM 28.9 °F 16.5 °F 26.1 °F 89% 30.07 in 0.8 mi East 18.4 mph - 0.01 in Snow Light Snow
1:32 PM 28.9 °F 16.5 °F 25.0 °F 85% 30.06 in 1.5 mi East 18.4 mph - 0.01 in Snow Light Snow
1:52 PM 30.0 °F 18.7 °F 25.0 °F 82% 30.12 in 2.0 mi East 16.1 mph - 0.01 in Snow Light Snow
2:07 PM 28.9 °F 17.3 °F 25.0 °F 85% 30.06 in 1.5 mi East 16.1 mph - 0.00 in Snow Light Snow
2:23 PM 28.9 °F 16.1 °F 24.1 °F 82% 30.06 in 0.8 mi East 19.6 mph - 0.00 in Snow Light Snow
2:33 PM 28.9 °F 16.5 °F 24.1 °F 82% 30.06 in 1.5 mi East 18.4 mph - 0.00 in Snow Light Snow
2:41 PM 28.9 °F 16.1 °F 24.1 °F 82% 30.06 in 3.0 mi East 19.6 mph - 0.00 in Snow Light Snow
2:52 PM 28.9 °F 16.1 °F 24.1 °F 82% 30.10 in 3.0 mi East 19.6 mph - 0.00 in Snow Light Snow
3:07 PM 28.9 °F 16.5 °F 23.0 °F 78% 30.05 in 1.8 mi East 18.4 mph - 0.00 in Snow Light Snow
3:52 PM 27.0 °F 13.9 °F 21.9 °F 81% 30.12 in 1.0 mi East 18.4 mph - 0.00 in Snow Light Snow
4:29 PM 27.0 °F 14.3 °F 21.0 °F 78% 30.06 in 1.2 mi East 17.3 mph - 0.01 in Snow Light Snow
4:49 PM 26.6 °F 14.3 °F 21.2 °F 80% 30.06 in 3.0 mi East 16.1 mph - 0.01 in Snow Light Snow
4:52 PM 27.0 °F 14.7 °F 21.0 °F 78% 30.12 in 4.0 mi East 16.1 mph - 0.01 in Snow Light Snow
5:52 PM 27.0 °F 16.1 °F 19.0 °F 72% 30.12 in 10.0 mi ENE 12.7 mph - 0.00 in   Overcast
6:52 PM 25.0 °F 13.6 °F 18.0 °F 75% 30.14 in 10.0 mi ENE 12.7 mph - N/A   Overcast
6:59 PM 25.0 °F 14.8 °F 18.0 °F 75% 30.08 in 10.0 mi East 10.4 mph - N/A   Overcast
7:31 PM 25.0 °F 14.8 °F 17.1 °F 72% 30.09 in 10.0 mi ENE 10.4 mph - N/A   Overcast
7:52 PM 25.0 °F 15.5 °F 17.1 °F 72% 30.16 in 10.0 mi NE 9.2 mph - N/A   Overcast
8:52 PM 25.0 °F 19.3 °F 21.9 °F 88% 30.17 in 8.0 mi NNE 4.6 mph - N/A   Overcast
9:08 PM 24.1 °F 15.2 °F 16.0 °F 71% 30.10 in 10.0 mi East 8.1 mph - N/A   Overcast
9:52 PM 23.0 °F 17.0 °F 14.0 °F 68% 30.18 in 10.0 mi ENE 4.6 mph - N/A   Overcast
10:19 PM 23.0 °F 12.4 °F 17.1 °F 78% 30.11 in 4.0 mi ENE 10.4 mph - 0.00 in Snow Light Snow
10:45 PM 21.9 °F 11.0 °F 17.1 °F 82% 30.10 in 2.5 mi ENE 10.4 mph - 0.00 in Snow Light Snow
10:52 PM 21.9 °F 10.4 °F 17.1 °F 82% 30.17 in 2.5 mi ENE 11.5 mph - 0.00 in Snow Light Snow
11:03 PM 21.0 °F 10.6 °F 17.1 °F 85% 30.10 in 3.0 mi NE 9.2 mph - 0.00 in Snow Light Snow
11:31 PM 21.0 °F 10.6 °F 16.0 °F 81% 30.11 in 2.5 mi NNW 9.2 mph - 0.00 in Snow Light Snow
11:52 PM 19.9 °F 10.1 °F 16.0 °F 85% 30.19 in 5.0 mi North 8.1 mph - 0.01 in Snow Light Snow